contact:dominique.lefevre@mio.osupytheas.fr, maurice.libes@osupytheas.fr, didier.mallarino@osupytheas.fr
Project:EMSO http://www.emso-fr.org/EMSO-France
Depth: 2436.0 m
Title:EMSO Ligure Ouest : Data MII capteur MICROCAT
DateTime_Computer,Latitude,Longitude,Temperature,Conductivity,Pressure,DateTime_Instrument
DateTime_Computer,Latitude,Longitude,degC,S m-1,dbar,DateTime_Instrument
2020-02-18T00:00:09Z,42.805,6.029,13.2970,4.59970,2469.993,2020-2-18T02:00:45Z
2020-02-18T00:03:13Z,42.805,6.029,13.2970,4.59971,2470.017,2020-2-18T02:03:48Z
2020-02-18T00:06:16Z,42.805,6.029,13.2966,4.59970,2470.017,2020-2-18T02:06:51Z
2020-02-18T00:09:19Z,42.805,6.029,13.2968,4.59969,2469.993,2020-2-18T02:09:54Z
2020-02-18T00:12:22Z,42.805,6.029,13.2968,4.59968,2470.007,2020-2-18T02:12:57Z
2020-02-18T00:15:26Z,42.805,6.029,13.2970,4.59968,2469.993,2020-2-18T02:16:01Z
2020-02-18T00:18:29Z,42.805,6.029,13.2970,4.59971,2469.993,2020-2-18T02:19:04Z
2020-02-18T00:21:32Z,42.805,6.029,13.2965,4.59968,2470.077,2020-2-18T02:22:07Z
2020-02-18T00:24:35Z,42.805,6.029,13.2969,4.59969,2470.03,2020-2-18T02:25:10Z
2020-02-18T00:27:38Z,42.805,6.029,13.2969,4.59968,2470.017,2020-2-18T02:28:13Z
2020-02-18T00:30:41Z,42.805,6.029,13.2968,4.59970,2470.003,2020-2-18T02:31:17Z
2020-02-18T00:33:45Z,42.805,6.029,13.2966,4.59968,2470.017,2020-2-18T02:34:20Z
2020-02-18T00:36:48Z,42.805,6.029,13.2967,4.59969,2470.007,2020-2-18T02:37:23Z
2020-02-18T00:39:51Z,42.805,6.029,13.2968,4.59968,2470.03,2020-2-18T02:40:26Z
2020-02-18T00:42:54Z,42.805,6.029,13.2968,4.59970,2470.04,2020-2-18T02:43:29Z
2020-02-18T00:45:57Z,42.805,6.029,13.2965,4.59970,2470.03,2020-2-18T02:46:33Z
2020-02-18T00:49:01Z,42.805,6.029,13.2968,4.59968,2470.007,2020-2-18T02:49:36Z
2020-02-18T00:52:04Z,42.805,6.029,13.2967,4.59970,2470.04,2020-2-18T02:52:39Z
2020-02-18T00:55:07Z,42.805,6.029,13.2968,4.59970,2470.04,2020-2-18T02:55:42Z
2020-02-18T00:58:10Z,42.805,6.029,13.2964,4.59970,2470.017,2020-2-18T02:58:45Z
2020-02-18T01:01:14Z,42.805,6.029,13.2969,4.59970,2470.04,2020-2-18T03:01:49Z
2020-02-18T01:04:17Z,42.805,6.029,13.2967,4.59969,2470.017,2020-2-18T03:04:52Z
2020-02-18T01:07:20Z,42.805,6.029,13.2968,4.59970,2469.993,2020-2-18T03:07:55Z
2020-02-18T01:10:23Z,42.805,6.029,13.2968,4.59972,2470.017,2020-2-18T03:10:58Z
2020-02-18T01:13:26Z,42.805,6.029,13.2967,4.59971,2470.03,2020-2-18T03:14:01Z
2020-02-18T01:16:29Z,42.805,6.029,13.2968,4.59969,2470.04,2020-2-18T03:17:05Z
2020-02-18T01:19:33Z,42.805,6.029,13.2971,4.59970,2470.04,2020-2-18T03:20:08Z
2020-02-18T01:22:36Z,42.805,6.029,13.2972,4.59970,2470.04,2020-2-18T03:23:11Z
2020-02-18T01:25:39Z,42.805,6.029,13.2965,4.59972,2470.063,2020-2-18T03:26:14Z
2020-02-18T01:28:42Z,42.805,6.029,13.2966,4.59969,2470.03,2020-2-18T03:29:17Z
2020-02-18T01:31:45Z,42.805,6.029,13.2966,4.59971,2470.017,2020-2-18T03:32:21Z
2020-02-18T01:34:49Z,42.805,6.029,13.2967,4.59971,2470.04,2020-2-18T03:35:24Z
2020-02-18T01:37:52Z,42.805,6.029,13.2968,4.59971,2470.063,2020-2-18T03:38:27Z
2020-02-18T01:40:55Z,42.805,6.029,13.2966,4.59971,2470.04,2020-2-18T03:41:30Z
2020-02-18T01:43:58Z,42.805,6.029,13.2965,4.59971,2470.04,2020-2-18T03:44:33Z
2020-02-18T01:47:01Z,42.805,6.029,13.2966,4.59970,2470.077,2020-2-18T03:47:37Z
2020-02-18T01:50:05Z,42.805,6.029,13.2968,4.59971,2470.017,2020-2-18T03:50:40Z
2020-02-18T01:53:08Z,42.805,6.029,13.2965,4.59973,2470.063,2020-2-18T03:53:43Z
2020-02-18T01:56:11Z,42.805,6.029,13.2967,4.59971,2470.063,2020-2-18T03:56:46Z
2020-02-18T01:59:14Z,42.805,6.029,13.2967,4.59971,2470.04,2020-2-18T03:59:49Z
2020-02-18T02:02:18Z,42.805,6.029,13.2970,4.59969,2470.017,2020-2-18T04:02:53Z
2020-02-18T02:05:21Z,42.805,6.029,13.2968,4.59969,2470.063,2020-2-18T04:05:56Z
2020-02-18T02:08:24Z,42.805,6.029,13.2971,4.59970,2470.053,2020-2-18T04:09:00Z
2020-02-18T02:11:28Z,42.805,6.029,13.2971,4.59971,2470.077,2020-2-18T04:12:03Z
2020-02-18T02:14:31Z,42.805,6.029,13.2967,4.59968,2470.087,2020-2-18T04:15:06Z
2020-02-18T02:17:34Z,42.805,6.029,13.2971,4.59970,2470.063,2020-2-18T04:18:09Z
2020-02-18T02:20:37Z,42.805,6.029,13.2971,4.59971,2470.063,2020-2-18T04:21:12Z
2020-02-18T02:23:40Z,42.805,6.029,13.2968,4.59971,2470.063,2020-2-18T04:24:15Z
2020-02-18T02:26:44Z,42.805,6.029,13.2967,4.59971,2470.053,2020-2-18T04:27:19Z
2020-02-18T02:29:47Z,42.805,6.029,13.2967,4.59970,2470.063,2020-2-18T04:30:22Z
2020-02-18T02:32:50Z,42.805,6.029,13.2969,4.59969,2470.04,2020-2-18T04:33:25Z
2020-02-18T02:35:53Z,42.805,6.029,13.2969,4.59970,2470.04,2020-2-18T04:36:28Z
2020-02-18T02:38:57Z,42.805,6.029,13.2967,4.59971,2470.04,2020-2-18T04:39:32Z
2020-02-18T02:42:00Z,42.805,6.029,13.2966,4.59971,2470.063,2020-2-18T04:42:35Z
2020-02-18T02:45:03Z,42.805,6.029,13.2966,4.59971,2470.04,2020-2-18T04:45:38Z
2020-02-18T02:48:06Z,42.805,6.029,13.2967,4.59971,2470.077,2020-2-18T04:48:41Z
2020-02-18T02:51:09Z,42.805,6.029,13.2964,4.59969,2470.077,2020-2-18T04:51:44Z
2020-02-18T02:54:12Z,42.805,6.029,13.2970,4.59970,2470.04,2020-2-18T04:54:48Z
2020-02-18T02:57:16Z,42.805,6.029,13.2967,4.59968,2470.017,2020-2-18T04:57:51Z
2020-02-18T03:00:19Z,42.805,6.029,13.2966,4.59972,2470.087,2020-2-18T05:00:54Z
2020-02-18T03:03:22Z,42.805,6.029,13.2966,4.59970,2470.077,2020-2-18T05:03:57Z
2020-02-18T03:06:25Z,42.805,6.029,13.2968,4.59970,2470.063,2020-2-18T05:07:00Z
2020-02-18T03:09:28Z,42.805,6.029,13.2964,4.59969,2470.077,2020-2-18T05:10:03Z
2020-02-18T03:12:32Z,42.805,6.029,13.2967,4.59967,2470.063,2020-2-18T05:13:07Z
2020-02-18T03:15:35Z,42.805,6.029,13.2969,4.59968,2470.063,2020-2-18T05:16:10Z
2020-02-18T03:18:38Z,42.805,6.029,13.2967,4.59970,2470.087,2020-2-18T05:19:13Z
2020-02-18T03:21:41Z,42.805,6.029,13.2966,4.59969,2470.063,2020-2-18T05:22:16Z
2020-02-18T03:24:44Z,42.805,6.029,13.2967,4.59970,2470.063,2020-2-18T05:25:19Z
2020-02-18T03:27:48Z,42.805,6.029,13.2969,4.59968,2470.124,2020-2-18T05:28:23Z
2020-02-18T03:30:51Z,42.805,6.029,13.2967,4.59968,2470.1,2020-2-18T05:31:26Z
2020-02-18T03:33:54Z,42.805,6.029,13.2967,4.59968,2470.063,2020-2-18T05:34:29Z
2020-02-18T03:36:57Z,42.805,6.029,13.2965,4.59968,2470.087,2020-2-18T05:37:32Z
2020-02-18T03:40:00Z,42.805,6.029,13.2968,4.59970,2470.124,2020-2-18T05:40:35Z
2020-02-18T03:43:04Z,42.805,6.029,13.2967,4.59969,2470.087,2020-2-18T05:43:39Z
2020-02-18T03:46:07Z,42.805,6.029,13.2963,4.59969,2470.1,2020-2-18T05:46:42Z
2020-02-18T03:49:10Z,42.805,6.029,13.2968,4.59968,2470.1,2020-2-18T05:49:45Z
2020-02-18T03:52:13Z,42.805,6.029,13.2968,4.59968,2470.1,2020-2-18T05:52:48Z
2020-02-18T03:55:16Z,42.805,6.029,13.2961,4.59968,2470.077,2020-2-18T05:55:51Z
2020-02-18T03:58:19Z,42.805,6.029,13.2966,4.59970,2470.087,2020-2-18T05:58:55Z
2020-02-18T04:01:23Z,42.805,6.029,13.2969,4.59969,2470.1,2020-2-18T06:01:58Z
2020-02-18T04:04:26Z,42.805,6.029,13.2964,4.59968,2470.063,2020-2-18T06:05:01Z
2020-02-18T04:07:29Z,42.805,6.029,13.2964,4.59968,2470.063,2020-2-18T06:08:05Z
2020-02-18T04:10:33Z,42.805,6.029,13.2967,4.59968,2470.087,2020-2-18T06:11:08Z
2020-02-18T04:13:36Z,42.805,6.029,13.2964,4.59968,2470.1,2020-2-18T06:14:11Z
2020-02-18T04:16:39Z,42.805,6.029,13.2967,4.59968,2470.073,2020-2-18T06:17:14Z
2020-02-18T04:19:42Z,42.805,6.029,13.2968,4.59968,2470.124,2020-2-18T06:20:17Z
2020-02-18T04:22:46Z,42.805,6.029,13.2968,4.59969,2470.11,2020-2-18T06:23:21Z
2020-02-18T04:25:49Z,42.805,6.029,13.2964,4.59969,2470.124,2020-2-18T06:26:24Z
2020-02-18T04:28:52Z,42.805,6.029,13.2965,4.59969,2470.063,2020-2-18T06:29:27Z
2020-02-18T04:31:55Z,42.805,6.029,13.2969,4.59970,2470.124,2020-2-18T06:32:30Z
2020-02-18T04:34:58Z,42.805,6.029,13.2967,4.59969,2470.087,2020-2-18T06:35:34Z
2020-02-18T04:38:02Z,42.805,6.029,13.2967,4.59968,2470.1,2020-2-18T06:38:37Z
2020-02-18T04:41:05Z,42.805,6.029,13.2967,4.59971,2470.063,2020-2-18T06:41:40Z
2020-02-18T04:44:08Z,42.805,6.029,13.2964,4.59968,2470.063,2020-2-18T06:44:43Z
2020-02-18T04:47:11Z,42.805,6.029,13.2967,4.59968,2470.087,2020-2-18T06:47:46Z
2020-02-18T04:50:14Z,42.805,6.029,13.2967,4.59971,2470.063,2020-2-18T06:50:49Z
2020-02-18T04:53:18Z,42.805,6.029,13.2967,4.59971,2470.1,2020-2-18T06:53:53Z
2020-02-18T04:56:21Z,42.805,6.029,13.2966,4.59971,2470.087,2020-2-18T06:56:56Z
2020-02-18T04:59:24Z,42.805,6.029,13.2967,4.59970,2470.1,2020-2-18T06:59:59Z
2020-02-18T05:02:27Z,42.805,6.029,13.2967,4.59971,2470.1,2020-2-18T07:03:02Z
2020-02-18T05:05:30Z,42.805,6.029,13.2967,4.59970,2470.11,2020-2-18T07:06:06Z
2020-02-18T05:08:34Z,42.805,6.029,13.2969,4.59970,2470.1,2020-2-18T07:09:09Z
2020-02-18T05:11:37Z,42.805,6.029,13.2968,4.59970,2470.087,2020-2-18T07:12:12Z
2020-02-18T05:14:40Z,42.805,6.029,13.2969,4.59970,2470.1,2020-2-18T07:15:15Z
2020-02-18T05:17:43Z,42.805,6.029,13.2967,4.59970,2470.1,2020-2-18T07:18:18Z
2020-02-18T05:20:46Z,42.805,6.029,13.2968,4.59972,2470.087,2020-2-18T07:21:21Z
2020-02-18T05:23:50Z,42.805,6.029,13.2967,4.59973,2470.1,2020-2-18T07:24:25Z
2020-02-18T05:26:53Z,42.805,6.029,13.2968,4.59972,2470.1,2020-2-18T07:27:28Z
2020-02-18T05:29:56Z,42.805,6.029,13.2967,4.59972,2470.087,2020-2-18T07:30:31Z
2020-02-18T05:32:59Z,42.805,6.029,13.2970,4.59970,2470.063,2020-2-18T07:33:34Z
2020-02-18T05:36:02Z,42.805,6.029,13.2967,4.59971,2470.1,2020-2-18T07:36:37Z
2020-02-18T05:39:06Z,42.805,6.029,13.2965,4.59970,2470.1,2020-2-18T07:39:41Z
2020-02-18T05:42:09Z,42.805,6.029,13.2966,4.59972,2470.04,2020-2-18T07:42:44Z
2020-02-18T05:45:12Z,42.805,6.029,13.2967,4.59971,2470.063,2020-2-18T07:45:47Z
2020-02-18T05:48:15Z,42.805,6.029,13.2968,4.59972,2470.1,2020-2-18T07:48:50Z
2020-02-18T05:51:18Z,42.805,6.029,13.2967,4.59971,2470.063,2020-2-18T07:51:54Z
2020-02-18T05:54:22Z,42.805,6.029,13.2967,4.59971,2470.063,2020-2-18T07:54:57Z
2020-02-18T05:57:25Z,42.805,6.029,13.2963,4.59972,2470.053,2020-2-18T07:58:00Z
2020-02-18T06:00:28Z,42.805,6.029,13.2971,4.59973,2470.063,2020-2-18T08:01:03Z
2020-02-18T06:03:31Z,42.805,6.029,13.2968,4.59972,2470.04,2020-2-18T08:04:06Z
2020-02-18T06:06:34Z,42.805,6.029,13.2969,4.59971,2470.077,2020-2-18T08:07:10Z
2020-02-18T06:09:38Z,42.805,6.029,13.2967,4.59972,2470.053,2020-2-18T08:10:13Z
2020-02-18T06:12:41Z,42.805,6.029,13.2967,4.59973,2470.063,2020-2-18T08:13:16Z
2020-02-18T06:15:44Z,42.805,6.029,13.2965,4.59970,2470.063,2020-2-18T08:16:19Z
2020-02-18T06:18:47Z,42.805,6.029,13.2964,4.59969,2470.063,2020-2-18T08:19:22Z
2020-02-18T06:21:50Z,42.805,6.029,13.2969,4.59971,2470.077,2020-2-18T08:22:26Z
2020-02-18T06:24:54Z,42.805,6.029,13.2962,4.59972,2470.077,2020-2-18T08:25:29Z
2020-02-18T06:27:57Z,42.805,6.029,13.2967,4.59976,2470.053,2020-2-18T08:28:32Z
2020-02-18T06:31:00Z,42.805,6.029,13.2967,4.59972,2470.053,2020-2-18T08:31:35Z
2020-02-18T06:34:03Z,42.805,6.029,13.2968,4.59970,2470.087,2020-2-18T08:34:39Z
2020-02-18T06:37:07Z,42.805,6.029,13.2969,4.59972,2470.053,2020-2-18T08:37:42Z
2020-02-18T06:40:10Z,42.805,6.029,13.2968,4.59971,2470.04,2020-2-18T08:40:45Z
2020-02-18T06:43:13Z,42.805,6.029,13.2964,4.59969,2470.053,2020-2-18T08:43:48Z
2020-02-18T06:46:16Z,42.805,6.029,13.2965,4.59971,2470.04,2020-2-18T08:46:51Z
2020-02-18T06:49:19Z,42.805,6.029,13.2968,4.59970,2470.1,2020-2-18T08:49:55Z
2020-02-18T06:52:23Z,42.805,6.029,13.2966,4.59973,2470.077,2020-2-18T08:52:58Z
2020-02-18T06:55:26Z,42.805,6.029,13.2967,4.59971,2470.053,2020-2-18T08:56:01Z
2020-02-18T06:58:29Z,42.805,6.029,13.2969,4.59972,2470.017,2020-2-18T08:59:05Z
2020-02-18T07:01:33Z,42.805,6.029,13.2971,4.59973,2470.063,2020-2-18T09:02:08Z
2020-02-18T07:04:36Z,42.805,6.029,13.2967,4.59970,2470.017,2020-2-18T09:05:11Z
2020-02-18T07:07:39Z,42.805,6.029,13.2966,4.59972,2470.063,2020-2-18T09:08:14Z
2020-02-18T07:10:42Z,42.805,6.029,13.2968,4.59971,2470.063,2020-2-18T09:11:17Z
2020-02-18T07:13:45Z,42.805,6.029,13.2961,4.59972,2470.04,2020-2-18T09:14:21Z
2020-02-18T07:16:49Z,42.805,6.029,13.2968,4.59971,2470.017,2020-2-18T09:17:24Z
2020-02-18T07:19:52Z,42.805,6.029,13.2967,4.59972,2470.017,2020-2-18T09:20:27Z
2020-02-18T07:22:55Z,42.805,6.029,13.2971,4.59971,2470.053,2020-2-18T09:23:30Z
2020-02-18T07:25:58Z,42.805,6.029,13.2963,4.59973,2470.063,2020-2-18T09:26:33Z
2020-02-18T07:29:01Z,42.805,6.029,13.2969,4.59972,2470.017,2020-2-18T09:29:37Z
2020-02-18T07:32:05Z,42.805,6.029,13.2969,4.59973,2470.063,2020-2-18T09:32:40Z
2020-02-18T07:35:08Z,42.805,6.029,13.2966,4.59973,2470.053,2020-2-18T09:35:43Z
2020-02-18T07:38:11Z,42.805,6.029,13.2968,4.59973,2470.017,2020-2-18T09:38:46Z
2020-02-18T07:41:14Z,42.805,6.029,13.2971,4.59971,2470.04,2020-2-18T09:41:50Z
2020-02-18T07:44:18Z,42.805,6.029,13.2968,4.59972,2470.053,2020-2-18T09:44:53Z
2020-02-18T07:47:21Z,42.805,6.029,13.2967,4.59973,2470.04,2020-2-18T09:47:56Z
2020-02-18T07:50:24Z,42.805,6.029,13.2964,4.59973,2470.053,2020-2-18T09:50:59Z
2020-02-18T07:53:27Z,42.805,6.029,13.2968,4.59972,2470.04,2020-2-18T09:54:02Z
2020-02-18T07:56:30Z,42.805,6.029,13.2967,4.59972,2470.087,2020-2-18T09:57:06Z
2020-02-18T07:59:34Z,42.805,6.029,13.2967,4.59973,2470.017,2020-2-18T10:00:09Z
2020-02-18T08:02:37Z,42.805,6.029,13.2965,4.59972,2470.03,2020-2-18T10:03:12Z
2020-02-18T08:05:40Z,42.805,6.029,13.2969,4.59974,2470.04,2020-2-18T10:06:15Z
2020-02-18T08:08:43Z,42.805,6.029,13.2964,4.59973,2470.053,2020-2-18T10:09:18Z
2020-02-18T08:11:46Z,42.805,6.029,13.2968,4.59971,2470.053,2020-2-18T10:12:21Z
2020-02-18T08:14:50Z,42.805,6.029,13.2968,4.59971,2470.04,2020-2-18T10:15:25Z
2020-02-18T08:17:53Z,42.805,6.029,13.2971,4.59971,2470.053,2020-2-18T10:18:28Z
2020-02-18T08:20:56Z,42.805,6.029,13.2971,4.59973,2470.03,2020-2-18T10:21:31Z
2020-02-18T08:23:59Z,42.805,6.029,13.2973,4.59972,2470.017,2020-2-18T10:24:34Z
2020-02-18T08:27:02Z,42.805,6.029,13.2968,4.59972,2469.993,2020-2-18T10:27:37Z
2020-02-18T08:30:06Z,42.805,6.029,13.2967,4.59972,2469.993,2020-2-18T10:30:41Z
2020-02-18T08:33:09Z,42.805,6.029,13.2970,4.59973,2470.04,2020-2-18T10:33:44Z
2020-02-18T08:36:12Z,42.805,6.029,13.2969,4.59971,2470.03,2020-2-18T10:36:47Z
2020-02-18T08:39:15Z,42.805,6.029,13.2967,4.59971,2470.007,2020-2-18T10:39:50Z
2020-02-18T08:42:18Z,42.805,6.029,13.2967,4.59973,2469.993,2020-2-18T10:42:53Z
2020-02-18T08:45:22Z,42.805,6.029,13.2968,4.59973,2469.97,2020-2-18T10:45:57Z
2020-02-18T08:48:25Z,42.805,6.029,13.2965,4.59972,2469.993,2020-2-18T10:49:00Z
2020-02-18T08:51:28Z,42.805,6.029,13.2968,4.59972,2469.993,2020-2-18T10:52:03Z
2020-02-18T08:54:31Z,42.805,6.029,13.2968,4.59973,2470.007,2020-2-18T10:55:06Z
2020-02-18T08:57:34Z,42.805,6.029,13.2965,4.59972,2469.993,2020-2-18T10:58:10Z
2020-02-18T09:00:38Z,42.805,6.029,13.2969,4.59971,2470.017,2020-2-18T11:01:13Z
2020-02-18T09:03:41Z,42.805,6.029,13.2966,4.59974,2470.007,2020-2-18T11:04:16Z
2020-02-18T09:06:44Z,42.805,6.029,13.2968,4.59974,2470.017,2020-2-18T11:07:19Z
2020-02-18T09:09:48Z,42.805,6.029,13.2966,4.59972,2470.017,2020-2-18T11:10:23Z
2020-02-18T09:12:51Z,42.805,6.029,13.2967,4.59973,2469.97,2020-2-18T11:13:26Z
2020-02-18T09:15:54Z,42.805,6.029,13.2964,4.59971,2469.956,2020-2-18T11:16:29Z
2020-02-18T09:18:57Z,42.805,6.029,13.2968,4.59974,2470.04,2020-2-18T11:19:32Z
2020-02-18T09:22:00Z,42.805,6.029,13.2967,4.59971,2470.007,2020-2-18T11:22:35Z
2020-02-18T09:25:03Z,42.805,6.029,13.2966,4.59973,2470.03,2020-2-18T11:25:39Z
2020-02-18T09:28:07Z,42.805,6.029,13.2967,4.59971,2470.007,2020-2-18T11:28:42Z
2020-02-18T09:31:10Z,42.805,6.029,13.2967,4.59972,2469.993,2020-2-18T11:31:45Z
2020-02-18T09:34:13Z,42.805,6.029,13.2966,4.59974,2470.017,2020-2-18T11:34:48Z
2020-02-18T09:37:16Z,42.805,6.029,13.2969,4.59972,2470.017,2020-2-18T11:37:52Z
2020-02-18T09:40:20Z,42.805,6.029,13.2968,4.59971,2469.993,2020-2-18T11:40:55Z
2020-02-18T09:43:23Z,42.805,6.029,13.2966,4.59971,2469.984,2020-2-18T11:43:58Z
2020-02-18T09:46:26Z,42.805,6.029,13.2965,4.59971,2469.993,2020-2-18T11:47:01Z
2020-02-18T09:49:29Z,42.805,6.029,13.2964,4.59973,2469.993,2020-2-18T11:50:04Z
2020-02-18T09:52:32Z,42.805,6.029,13.2964,4.59972,2470.017,2020-2-18T11:53:08Z
2020-02-18T09:55:36Z,42.805,6.029,13.2963,4.59971,2469.947,2020-2-18T11:56:11Z
2020-02-18T09:58:39Z,42.805,6.029,13.2965,4.59973,2470.017,2020-2-18T11:59:14Z
2020-02-18T10:01:42Z,42.805,6.029,13.2965,4.59972,2469.984,2020-2-18T12:02:17Z
2020-02-18T10:04:45Z,42.805,6.029,13.2964,4.59973,2470.017,2020-2-18T12:05:21Z
2020-02-18T10:07:49Z,42.805,6.029,13.2966,4.59974,2470.007,2020-2-18T12:08:24Z
2020-02-18T10:10:52Z,42.805,6.029,13.2967,4.59972,2469.993,2020-2-18T12:11:27Z
2020-02-18T10:13:55Z,42.805,6.029,13.2964,4.59971,2470.007,2020-2-18T12:14:30Z
2020-02-18T10:16:58Z,42.805,6.029,13.2965,4.59973,2469.993,2020-2-18T12:17:33Z
2020-02-18T10:20:01Z,42.805,6.029,13.2965,4.59972,2470.03,2020-2-18T12:20:37Z
2020-02-18T10:23:05Z,42.805,6.029,13.2968,4.59971,2470.03,2020-2-18T12:23:40Z
2020-02-18T10:26:08Z,42.805,6.029,13.2964,4.59970,2469.984,2020-2-18T12:26:43Z
2020-02-18T10:29:11Z,42.805,6.029,13.2967,4.59971,2470.007,2020-2-18T12:29:46Z
2020-02-18T10:32:14Z,42.805,6.029,13.2965,4.59969,2469.993,2020-2-18T12:32:49Z
2020-02-18T10:35:17Z,42.805,6.029,13.2964,4.59968,2470.007,2020-2-18T12:35:53Z
2020-02-18T10:38:21Z,42.805,6.029,13.2967,4.59971,2469.97,2020-2-18T12:38:56Z
2020-02-18T10:41:24Z,42.805,6.029,13.2965,4.59970,2469.984,2020-2-18T12:41:59Z
2020-02-18T10:44:27Z,42.805,6.029,13.2967,4.59968,2470.007,2020-2-18T12:45:03Z
2020-02-18T10:47:31Z,42.805,6.029,13.2964,4.59973,2469.97,2020-2-18T12:48:06Z
2020-02-18T10:50:34Z,42.805,6.029,13.2968,4.59971,2470.03,2020-2-18T12:51:09Z
2020-02-18T10:53:37Z,42.805,6.029,13.2964,4.59976,2470.017,2020-2-18T12:54:13Z
2020-02-18T10:56:41Z,42.805,6.029,13.2965,4.59971,2469.993,2020-2-18T12:57:16Z
2020-02-18T10:59:44Z,42.805,6.029,13.2965,4.59968,2469.993,2020-2-18T13:00:19Z
2020-02-18T11:02:47Z,42.805,6.029,13.2968,4.59970,2470.03,2020-2-18T13:03:22Z
2020-02-18T11:05:51Z,42.805,6.029,13.2967,4.59971,2469.956,2020-2-18T13:06:26Z
2020-02-18T11:08:54Z,42.805,6.029,13.2968,4.59973,2470.007,2020-2-18T13:09:29Z
2020-02-18T11:11:57Z,42.805,6.029,13.2967,4.59973,2469.97,2020-2-18T13:12:32Z
2020-02-18T11:15:00Z,42.805,6.029,13.2971,4.59976,2469.97,2020-2-18T13:15:35Z
2020-02-18T11:18:03Z,42.805,6.029,13.2966,4.59972,2469.993,2020-2-18T13:18:38Z
2020-02-18T11:21:06Z,42.805,6.029,13.2968,4.59973,2470.053,2020-2-18T13:21:42Z
2020-02-18T11:24:10Z,42.805,6.029,13.2964,4.59975,2469.993,2020-2-18T13:24:45Z
2020-02-18T11:27:13Z,42.805,6.029,13.2968,4.59973,2469.984,2020-2-18T13:27:48Z
2020-02-18T11:30:16Z,42.805,6.029,13.2965,4.59969,2469.993,2020-2-18T13:30:51Z
2020-02-18T11:33:19Z,42.805,6.029,13.2968,4.59971,2469.993,2020-2-18T13:33:55Z
2020-02-18T11:36:23Z,42.805,6.029,13.2968,4.59969,2470.017,2020-2-18T13:36:58Z
2020-02-18T11:39:26Z,42.805,6.029,13.2965,4.59970,2470.007,2020-2-18T13:40:01Z
2020-02-18T11:42:29Z,42.805,6.029,13.2965,4.59970,2469.984,2020-2-18T13:43:04Z
2020-02-18T11:45:32Z,42.805,6.029,13.2961,4.59970,2469.993,2020-2-18T13:46:07Z
2020-02-18T11:48:35Z,42.805,6.029,13.2966,4.59971,2470.007,2020-2-18T13:49:10Z
2020-02-18T11:51:39Z,42.805,6.029,13.2967,4.59970,2470.007,2020-2-18T13:52:14Z
2020-02-18T11:54:42Z,42.805,6.029,13.2967,4.59970,2469.993,2020-2-18T13:55:17Z
2020-02-18T11:57:45Z,42.805,6.029,13.2967,4.59969,2469.993,2020-2-18T13:58:20Z
2020-02-18T12:00:48Z,42.805,6.029,13.2965,4.59971,2469.97,2020-2-18T14:01:23Z
2020-02-18T12:03:51Z,42.805,6.029,13.2967,4.59971,2469.97,2020-2-18T14:04:27Z
2020-02-18T12:06:55Z,42.805,6.029,13.2967,4.59972,2469.97,2020-2-18T14:07:30Z
2020-02-18T12:09:58Z,42.805,6.029,13.2966,4.59970,2470.007,2020-2-18T14:10:33Z
2020-02-18T12:13:01Z,42.805,6.029,13.2969,4.59971,2470.007,2020-2-18T14:13:36Z
2020-02-18T12:16:04Z,42.805,6.029,13.2970,4.59971,2470.007,2020-2-18T14:16:39Z
2020-02-18T12:19:07Z,42.805,6.029,13.2965,4.59969,2470.017,2020-2-18T14:19:43Z
2020-02-18T12:22:11Z,42.805,6.029,13.2966,4.59971,2470.03,2020-2-18T14:22:46Z
2020-02-18T12:25:14Z,42.805,6.029,13.2966,4.59976,2469.984,2020-2-18T14:25:49Z
2020-02-18T12:28:17Z,42.805,6.029,13.2969,4.59976,2470.03,2020-2-18T14:28:52Z
2020-02-18T12:31:20Z,42.805,6.029,13.2967,4.59971,2470.007,2020-2-18T14:31:55Z
2020-02-18T12:34:23Z,42.805,6.029,13.2965,4.59973,2470.017,2020-2-18T14:34:59Z
2020-02-18T12:37:27Z,42.805,6.029,13.2966,4.59972,2469.993,2020-2-18T14:38:02Z
2020-02-18T12:40:30Z,42.805,6.029,13.2967,4.59972,2470.007,2020-2-18T14:41:05Z
2020-02-18T12:43:33Z,42.805,6.029,13.2967,4.59971,2469.993,2020-2-18T14:44:08Z
2020-02-18T12:46:36Z,42.805,6.029,13.2971,4.59973,2470.017,2020-2-18T14:47:11Z
2020-02-18T12:49:39Z,42.805,6.029,13.2968,4.59972,2470.007,2020-2-18T14:50:15Z
2020-02-18T12:52:43Z,42.805,6.029,13.2968,4.59971,2470.007,2020-2-18T14:53:18Z
2020-02-18T12:55:46Z,42.805,6.029,13.2969,4.59971,2470.03,2020-2-18T14:56:21Z
2020-02-18T12:58:49Z,42.805,6.029,13.2968,4.59976,2469.993,2020-2-18T14:59:24Z
2020-02-18T13:01:52Z,42.805,6.029,13.2969,4.59970,2470.007,2020-2-18T15:02:28Z
2020-02-18T13:04:56Z,42.805,6.029,13.2967,4.59973,2469.993,2020-2-18T15:05:31Z
2020-02-18T13:07:59Z,42.805,6.029,13.2967,4.59972,2469.993,2020-2-18T15:08:34Z
2020-02-18T13:11:02Z,42.805,6.029,13.2967,4.59971,2470.007,2020-2-18T15:11:37Z
2020-02-18T13:14:05Z,42.805,6.029,13.2967,4.59972,2470.007,2020-2-18T15:14:40Z
2020-02-18T13:17:09Z,42.805,6.029,13.2967,4.59973,2469.993,2020-2-18T15:17:44Z
2020-02-18T13:20:12Z,42.805,6.029,13.2968,4.59974,2469.979,2020-2-18T15:20:47Z
2020-02-18T13:23:15Z,42.805,6.029,13.2967,4.59972,2470.017,2020-2-18T15:23:50Z
2020-02-18T13:26:18Z,42.805,6.029,13.2971,4.59973,2469.993,2020-2-18T15:26:53Z
2020-02-18T13:29:21Z,42.805,6.029,13.2965,4.59973,2470.007,2020-2-18T15:29:57Z
2020-02-18T13:32:25Z,42.805,6.029,13.2969,4.59970,2470.017,2020-2-18T15:33:00Z
2020-02-18T13:35:28Z,42.805,6.029,13.2968,4.59970,2469.97,2020-2-18T15:36:03Z
2020-02-18T13:38:31Z,42.805,6.029,13.2967,4.59970,2470.017,2020-2-18T15:39:06Z
2020-02-18T13:41:34Z,42.805,6.029,13.2967,4.59973,2470.03,2020-2-18T15:42:09Z
2020-02-18T13:44:37Z,42.805,6.029,13.2967,4.59970,2469.97,2020-2-18T15:45:13Z
2020-02-18T13:47:41Z,42.805,6.029,13.2966,4.59970,2470.007,2020-2-18T15:48:16Z
2020-02-18T13:50:44Z,42.805,6.029,13.2967,4.59970,2469.984,2020-2-18T15:51:19Z
2020-02-18T13:53:47Z,42.805,6.029,13.2966,4.59972,2470.03,2020-2-18T15:54:22Z
2020-02-18T13:56:50Z,42.805,6.029,13.2970,4.59970,2469.993,2020-2-18T15:57:25Z
2020-02-18T13:59:53Z,42.805,6.029,13.2964,4.59971,2470.007,2020-2-18T16:00:29Z
2020-02-18T14:02:57Z,42.805,6.029,13.2967,4.59971,2469.993,2020-2-18T16:03:32Z
2020-02-18T14:06:00Z,42.805,6.029,13.2967,4.59971,2469.993,2020-2-18T16:06:35Z
2020-02-18T14:09:03Z,42.805,6.029,13.2965,4.59971,2470.003,2020-2-18T16:09:38Z
2020-02-18T14:12:06Z,42.805,6.029,13.2968,4.59969,2470.017,2020-2-18T16:12:41Z
2020-02-18T14:15:09Z,42.805,6.029,13.2970,4.59971,2469.993,2020-2-18T16:15:44Z
2020-02-18T14:18:13Z,42.805,6.029,13.2972,4.59971,2469.993,2020-2-18T16:18:48Z
2020-02-18T14:21:16Z,42.805,6.029,13.2969,4.59970,2469.993,2020-2-18T16:21:51Z
2020-02-18T14:24:19Z,42.805,6.029,13.2970,4.59970,2469.993,2020-2-18T16:24:54Z
2020-02-18T14:27:22Z,42.805,6.029,13.2966,4.59971,2469.993,2020-2-18T16:27:57Z
2020-02-18T14:30:25Z,42.805,6.029,13.2967,4.59970,2470.04,2020-2-18T16:31:01Z
2020-02-18T14:33:29Z,42.805,6.029,13.2965,4.59970,2470.017,2020-2-18T16:34:04Z
2020-02-18T14:36:32Z,42.805,6.029,13.2968,4.59971,2470.017,2020-2-18T16:37:07Z
2020-02-18T14:39:35Z,42.805,6.029,13.2972,4.59971,2470.017,2020-2-18T16:40:10Z
2020-02-18T14:42:39Z,42.805,6.029,13.2967,4.59971,2470.007,2020-2-18T16:43:14Z
2020-02-18T14:45:42Z,42.805,6.029,13.2965,4.59971,2470.007,2020-2-18T16:46:17Z
2020-02-18T14:48:45Z,42.805,6.029,13.2968,4.59971,2469.993,2020-2-18T16:49:20Z
2020-02-18T14:51:48Z,42.805,6.029,13.2967,4.59971,2470.03,2020-2-18T16:52:23Z
2020-02-18T14:54:51Z,42.805,6.029,13.2965,4.59971,2469.993,2020-2-18T16:55:26Z
2020-02-18T14:57:54Z,42.805,6.029,13.2969,4.59971,2470.017,2020-2-18T16:58:30Z
2020-02-18T15:00:58Z,42.805,6.029,13.2971,4.59970,2470.007,2020-2-18T17:01:33Z
2020-02-18T15:04:01Z,42.805,6.029,13.2969,4.59971,2470.017,2020-2-18T17:04:36Z
2020-02-18T15:07:04Z,42.805,6.029,13.2970,4.59971,2470.007,2020-2-18T17:07:40Z
2020-02-18T15:10:08Z,42.805,6.029,13.2963,4.59972,2470.03,2020-2-18T17:10:43Z
2020-02-18T15:13:11Z,42.805,6.029,13.2968,4.59971,2470.007,2020-2-18T17:13:46Z